DELTA 1 DEB, 10346

Orbit data source: Space-Track

DELTA 1 DEB, 10346 is space debris in LEO originally from a launch on Thu, 14 Jul 1977 UTC launched from the Air Force Eastern Test Range (AFETR). Debris objects in space refer to the collection of defunct objects orbiting the Earth. Examples of debris include non-operational satellites, rocket bodies, and fragments generated from explosions, collisions, or faulty payload assembly.

Loading next visibility...
Identifier
10346, 1977-065DV
Orbit
LEO
Country
Flag of USUS
Related business
Manufacturer
Unknown
Mission
Spacecraft
Bus & Motor
Unknown
Mass
Unknown
Launch date (UTC)
1977-07-14 (48 years ago)
Launch vehicle
Unknown
Launch site
Air Force Eastern Test Range (AFETR)
Object type
Payload
Rocket body
Debris
Shape & HBR
Unknown shape, 0.1 m
Radar Cross Section
Medium (>0.1 m² and <1 m²)

Expand to show TLE details & history
Last TLE update: 12 hours ago

TLE from 12 hours ago
0 DELTA 1 DEB
1 10346U 77065DV  25351.86410544  .00001272  00000-0  54548-3 0  9998
2 10346  29.2183 255.1169 0698680 118.4080 248.8683 13.36425293312462
Epoch: 2025-12-17T20:44Z
TLE epoch observation values (Epoch: 2025-12-17T20:44:18.710Z)
Latitude
-0°
Longitude
-142.68892°
Altitude
1,340.578 km
Speed
7.084 km/s
True Right ascension
17h 00m 28s
True Declination
0° 00' 00"
Sunlit
Object was in daylight at epoch
Visualization orbit readout
Latitude
Unknown
Longitude
Unknown
Altitude
Unknown
Speed
Unknown
Apparent Right ascension
Unknown
Apparent Declination
Unknown
Sunlit
N/A
Visualization observer readout
Local Sidereal Time
08:00:35
Azimuth
Unknown
Elevation
Unknown
Doppler factor
Unknown
Orbital elements
Apogee altitude
1,650.761 km
Perigee altitude
602.103 km
Semi-major axis
7,504.569 km
Eccentricity
0.06987
Inclination
29.2183°
RAAN
255.1169°
Arg. of periapsis
118.408°
True anomaly
241.6477°
Mean anomaly
248.8683°
Eccentric anomaly
245.23336°
Mean motion
3.33852 °/min
Orbital period
107.83 mins
BSTAR
0.00054548
Loading maneuver chart data...
Computing Atmospheric mass density...
Loading historical data...
Loading historical data...
Loading historical data...
Loading historical data...
Loading historical data...
Loading historical data...
Loading historical data...

Documentation

Showing up to 5 results
|